When you browse on this site, cookies collect data to enhance your experience and personalize the content and advertising you see.
Visit our Privacy Policy to learn more. By continuing to use the site, you agree to this use of cookies and data.
  • In Slovakia
  • List of Countries
  • For 7 days
  • Water Temperature
  • Satellite Maps
  • Weather Map
  • Weather Widgets
  • user-avatar
    Login

    Hourly Weather Babichi

    Today, 20 June, Thursday

    Time Temperature Precipitation Wind Pressure Humidity
    00:00 +19°C° 0.9 mm 3 mps 746 mmHg 93%
    01:00 +18°C° 0.9 mm 3 mps 746 mmHg 94%
    02:00 +18°C° 0.9 mm 3 mps 746 mmHg 95%
    03:00 +18°C° 0.1 mm 3 mps 746 mmHg 95%
    04:00 +18°C° 0.1 mm 2 mps 746 mmHg 95%
    05:00 +18°C° 0.1 mm 2 mps 745 mmHg 95%
    06:00 +19°C° 0 mm 3 mps 745 mmHg 92%
    07:00 +20°C° 0 mm 3 mps 745 mmHg 90%
    08:00 +22°C° 0 mm 3 mps 746 mmHg 88%
    09:00 +23°C° 0.7 mm 4 mps 745 mmHg 84%
    10:00 +25°C° 0.7 mm 4 mps 745 mmHg 81%
    11:00 +26°C° 0.7 mm 5 mps 745 mmHg 77%
    12:00 +26°C° 1.1 mm 5 mps 745 mmHg 76%
    13:00 +27°C° 1.1 mm 5 mps 745 mmHg 75%
    14:00 +27°C° 1.1 mm 5 mps 745 mmHg 74%
    15:00 +27°C° 0.4 mm 4 mps 744 mmHg 74%
    16:00 +27°C° 0.4 mm 4 mps 744 mmHg 73%
    17:00 +28°C° 0.4 mm 3 mps 744 mmHg 72%
    18:00 +26°C° 0.6 mm 3 mps 744 mmHg 78%
    19:00 +25°C° 0.6 mm 3 mps 744 mmHg 83%
    20:00 +24°C° 0.6 mm 3 mps 744 mmHg 88%
    21:00 +22°C° 0.3 mm 3 mps 744 mmHg 90%
    22:00 +21°C° 0.3 mm 3 mps 744 mmHg 92%
    23:00 +20°C° 0.3 mm 3 mps 744 mmHg 93%

    Tomorrow, 21 June, Friday

    Time Temperature Precipitation Wind Pressure Humidity
    00:00 +20°C° 0.1 mm 3 mps 744 mmHg 94%
    01:00 +20°C° 0.1 mm 2 mps 744 mmHg 95%
    02:00 +20°C° 0.1 mm 2 mps 744 mmHg 96%
    03:00 +20°C° 0 mm 2 mps 744 mmHg 96%
    04:00 +20°C° 0 mm 2 mps 745 mmHg 96%
    05:00 +20°C° 0 mm 2 mps 745 mmHg 96%
    06:00 +21°C° 0 mm 2 mps 745 mmHg 94%
    07:00 +23°C° 0 mm 2 mps 745 mmHg 91%
    08:00 +24°C° 0 mm 2 mps 745 mmHg 89%
    09:00 +25°C° 1.2 mm 3 mps 745 mmHg 84%
    10:00 +27°C° 1.2 mm 3 mps 745 mmHg 80%
    11:00 +28°C° 1.2 mm 3 mps 745 mmHg 75%
    12:00 +29°C° 0.3 mm 3 mps 745 mmHg 71%
    13:00 +29°C° 0.3 mm 3 mps 745 mmHg 66%
    14:00 +30°C° 0.3 mm 3 mps 745 mmHg 62%
    15:00 +30°C° 0.3 mm 2 mps 745 mmHg 65%
    16:00 +30°C° 0.3 mm 2 mps 745 mmHg 67%
    17:00 +30°C° 0.3 mm 2 mps 744 mmHg 70%
    18:00 +28°C° 0.2 mm 2 mps 744 mmHg 75%
    19:00 +26°C° 0.2 mm 1 mps 744 mmHg 80%
    20:00 +25°C° 0.2 mm 1 mps 744 mmHg 84%
    21:00 +24°C° 0.5 mm 1 mps 745 mmHg 85%
    22:00 +21°C° 0.5 mm 0 mps 745 mmHg 86%
    23:00 +20°C° 0.5 mm 0 mps 745 mmHg 87%

    Day after tomorrow, 22 June, Saturday

    Time Temperature Precipitation Wind Pressure Humidity
    00:00 +20°C° 0.4 mm 0 mps 745 mmHg 89%
    01:00 +22°C° 0.4 mm 1 mps 745 mmHg 90%
    02:00 +21°C° 0.4 mm 1 mps 745 mmHg 91%
    03:00 +21°C° 0.3 mm 1 mps 746 mmHg 91%
    04:00 +20°C° 0.3 mm 2 mps 746 mmHg 92%
    05:00 +20°C° 0.3 mm 2 mps 746 mmHg 93%
    06:00 +20°C° 0.3 mm 2 mps 746 mmHg 93%
    07:00 +20°C° 0.3 mm 2 mps 747 mmHg 94%
    08:00 +20°C° 0.3 mm 2 mps 747 mmHg 95%
    09:00 +21°C° 0.1 mm 3 mps 747 mmHg 93%
    10:00 +21°C° 0.1 mm 3 mps 747 mmHg 90%
    11:00 +22°C° 0.1 mm 3 mps 747 mmHg 88%
    12:00 +22°C° 0.3 mm 3 mps 747 mmHg 88%
    13:00 +22°C° 0.3 mm 3 mps 748 mmHg 88%
    14:00 +24°C° 0.3 mm 3 mps 748 mmHg 87%
    15:00 +22°C° 0.8 mm 3 mps 748 mmHg 88%
    16:00 +22°C° 0.8 mm 3 mps 748 mmHg 89%
    17:00 +21°C° 0.8 mm 3 mps 748 mmHg 90%
    18:00 +21°C° 0.1 mm 3 mps 748 mmHg 90%
    19:00 +21°C° 0.1 mm 3 mps 748 mmHg 90%
    20:00 +20°C° 0.1 mm 3 mps 748 mmHg 91%
    21:00 +20°C° 0 mm 3 mps 748 mmHg 90%
    22:00 +20°C° 0 mm 3 mps 748 mmHg 90%
    23:00 +19°C° 0 mm 4 mps 748 mmHg 89%

    23 June, Sunday

    Time Temperature Precipitation Wind Pressure Humidity
    00:00 +18°C° 0 mm 4 mps 748 mmHg 88%
    01:00 +18°C° 0 mm 4 mps 748 mmHg 86%
    02:00 +17°C° 0 mm 4 mps 748 mmHg 85%
    03:00 +17°C° 0 mm 4 mps 749 mmHg 85%
    04:00 +17°C° 0 mm 4 mps 749 mmHg 84%
    05:00 +16°C° 0 mm 5 mps 749 mmHg 84%
    06:00 +15°C° 0.3 mm 4 mps 749 mmHg 85%
    07:00 +15°C° 0.3 mm 4 mps 749 mmHg 87%
    08:00 +14°C° 0.3 mm 4 mps 749 mmHg 88%
    09:00 +15°C° 0.2 mm 4 mps 749 mmHg 90%
    10:00 +15°C° 0.2 mm 4 mps 749 mmHg 91%
    11:00 +17°C° 0.2 mm 4 mps 750 mmHg 92%
    12:00 +17°C° 0 mm 5 mps 750 mmHg 89%
    13:00 +19°C° 0 mm 5 mps 750 mmHg 87%
    14:00 +20°C° 0 mm 5 mps 750 mmHg 84%
    15:00 +21°C° 0.2 mm 5 mps 750 mmHg 85%
    16:00 +21°C° 0.2 mm 5 mps 750 mmHg 85%
    17:00 +21°C° 0.2 mm 5 mps 750 mmHg 85%
    18:00 +21°C° 0.4 mm 5 mps 750 mmHg 87%
    19:00 +20°C° 0.4 mm 4 mps 750 mmHg 89%
    20:00 +19°C° 0.4 mm 4 mps 750 mmHg 91%
    21:00 +19°C° 0.2 mm 4 mps 750 mmHg 91%
    22:00 +18°C° 0.2 mm 4 mps 751 mmHg 91%
    23:00 +18°C° 0.2 mm 4 mps 751 mmHg 91%

    24 June, Monday

    Time Temperature Precipitation Wind Pressure Humidity
    00:00 +18°C° 0 mm 4 mps 751 mmHg 92%
    01:00 +17°C° 0 mm 4 mps 751 mmHg 92%
    02:00 +17°C° 0 mm 4 mps 751 mmHg 93%
    03:00 +17°C° 0.1 mm 4 mps 751 mmHg 91%
    04:00 +17°C° 0.1 mm 3 mps 751 mmHg 90%
    05:00 +16°C° 0.1 mm 3 mps 751 mmHg 89%
    06:00 +17°C° 0 mm 4 mps 751 mmHg 88%
    07:00 +18°C° 0 mm 4 mps 752 mmHg 88%
    08:00 +19°C° 0 mm 4 mps 752 mmHg 87%
    09:00 +20°C° 0 mm 4 mps 752 mmHg 84%
    10:00 +21°C° 0 mm 4 mps 752 mmHg 81%
    11:00 +22°C° 0 mm 4 mps 752 mmHg 77%
    12:00 +23°C° 0 mm 4 mps 752 mmHg 75%
    13:00 +25°C° 0 mm 5 mps 752 mmHg 73%
    14:00 +25°C° 0 mm 5 mps 752 mmHg 71%
    15:00 +25°C° 0 mm 5 mps 752 mmHg 71%
    16:00 +25°C° 0 mm 4 mps 752 mmHg 71%
    17:00 +25°C° 0 mm 4 mps 752 mmHg 71%
    18:00 +23°C° 0 mm 4 mps 752 mmHg 75%
    19:00 +22°C° 0 mm 4 mps 753 mmHg 78%
    20:00 +20°C° 0 mm 3 mps 753 mmHg 82%
    21:00 +20°C° 0 mm 3 mps 753 mmHg 82%
    22:00 +19°C° 0 mm 3 mps 753 mmHg 82%
    23:00 +18°C° 0 mm 3 mps 754 mmHg 82%

    25 June, Tuesday

    Time Temperature Precipitation Wind Pressure Humidity
    00:00 +18°C° 0 mm 3 mps 754 mmHg 84%
    01:00 +17°C° 0 mm 3 mps 754 mmHg 87%
    02:00 +16°C° 0 mm 3 mps 754 mmHg 90%
    03:00 +16°C° 0 mm 3 mps 754 mmHg 89%
    04:00 +14°C° 0 mm 3 mps 754 mmHg 87%
    05:00 +14°C° 0 mm 3 mps 753 mmHg 86%
    06:00 +16°C° 0 mm 3 mps 754 mmHg 83%
    07:00 +18°C° 0 mm 3 mps 754 mmHg 80%
    08:00 +19°C° 0 mm 3 mps 754 mmHg 76%
    09:00 +21°C° 0 mm 3 mps 754 mmHg 73%
    10:00 +22°C° 0 mm 3 mps 754 mmHg 69%
    11:00 +24°C° 0 mm 3 mps 754 mmHg 65%
    12:00 +25°C° 0 mm 3 mps 754 mmHg 62%
    13:00 +25°C° 0 mm 3 mps 754 mmHg 59%
    14:00 +26°C° 0 mm 3 mps 753 mmHg 55%
    15:00 +26°C° 0 mm 3 mps 753 mmHg 57%
    16:00 +26°C° 0 mm 2 mps 753 mmHg 59%
    17:00 +26°C° 0 mm 2 mps 753 mmHg 60%
    18:00 +24°C° 0 mm 2 mps 753 mmHg 65%
    19:00 +22°C° 0 mm 1 mps 752 mmHg 70%
    20:00 +21°C° 0 mm 1 mps 752 mmHg 75%
    21:00 +20°C° 0 mm 1 mps 753 mmHg 77%
    22:00 +19°C° 0 mm 1 mps 753 mmHg 78%
    23:00 +18°C° 0 mm 1 mps 753 mmHg 79%
    Show more